Starlink 30572

operational
NORAD ID: 58114 Int'l Des: 2023-161 Owner: SPXS Country: US Constellation: starlink
LEOCIRCULAR

关于 Starlink 30572

正在加载描述...

实时位置

正在加载3D地球...

即将过境

高度历史

Altitude vs Time

uPlot chart will show altitude changes over time

两行轨道根数

1 58114U 23161T 25302.49202451 .00000958 00000-0 44474-4 0 9990
2 58114 53.1620 55.0005 0001634 90.9374 269.1814 15.30192786114334
Epoch: Oct 29, 2025 • Age: 16 hours

当前状态

高度 476.5 km
速度 7.63 km/s
星下点 -1.82°S, 40.21°W
发射日期 Oct 21, 2023
运行时间 2 years
类型 internet

技术详情

分类 Payload
质量 730.00 kg
干质量 700.00 kg
总质量 730.00 kg
长度 0.30 m
直径 4.10 m
跨度 29.00 m
形状 Box + pan
制造商 SPXS
平台类型 Starlink V2M
阶段状态 In Orbit
所有者/国家 SPXS/US

大型星座

Loading constellations...